Regional Weather Roundup
Issued by NWS

Home | Current Version | Previous Version | Text Only | Print | Product List | Glossary Off
Versions: 1 2 3 4 5 6 7 8 9 10 11 12 13 14 15 16 17 18 19 20 21 22 23 24 25 26 27 28 29 30 31 32 33 34 35 36 37 38 39 40 41 42 43 44 45 46 47 48 49 50

000
ASUS43 KLOT 270012
RWRIL

ILLINOIS REGIONAL WEATHER ROUNDUP
NATIONAL WEATHER SERVICE CHICAGO/ROMEOVILLE IL
700 PM CDT TUE MAY 26 2015

NOTE: "FAIR" INDICATES FEW OR NO CLOUDS BELOW 12,000 FEET WITH NO
SIGNIFICANT WEATHER AND/OR OBSTRUCTIONS TO VISIBILITY.

* THESE STATIONS ARE NOT UNDER NWS QUALITY CONTROL. THEY ALSO MAY NOT
  REPORT WEATHER SUCH AS PRECIPITATION OR FOG.

ILZ001-002-007-009-015-016-024-270100-
NORTHWEST ILLINOIS

CITY           SKY/WX    TMP DP  RH WIND       PRES   REMARKS
MOLINE         MOSUNNY   73  59  61 SW14      29.78S
6HR MIN TEMP:  73; 6HR MAX TEMP:  77; 6HR PCP: TRACE;

STERLING*      MOSUNNY  N/A N/A N/A W16G25    29.78R
SAVANNA*       MOSUNNY   73  58  60 W13G22    29.76S
$$

ILZ003-004-008-010-011-017-018-270100-
NORTH CENTRAL ILLINOIS

CITY           SKY/WX    TMP DP  RH WIND       PRES   REMARKS
ROCKFORD       PTSUNNY   71  59  65 SW16G24   29.78R
6HR MIN TEMP:  71; 6HR MAX TEMP:  76; 6HR PCP:  0.01;

FREEPORT*      PTSUNNY   69  59  70 W15G24    29.78R
ROCHELLE*      CLOUDY    70  61  74 SW17      29.79R
DE KALB*       MOSUNNY   69  58  70 W14G23    29.80R
PERU*          PTSUNNY   74  59  59 SW14      29.82R
$$

ILZ005-006-012>014-019>023-270100-
NORTHEAST ILLINOIS

CITY           SKY/WX    TMP DP  RH WIND       PRES   REMARKS
CHICAGO-OHARE  LGT RAIN  69  64  84 SW14      29.78R
6HR MIN TEMP:  68; 6HR MAX TEMP:  74; 6HR PCP:  0.29;

CHICAGO-MIDWAY PTSUNNY   74  63  68 SW18G28   29.79R
6HR MIN TEMP:  69; 6HR MAX TEMP:  77; 6HR PCP:  0.22;

AURORA         PTSUNNY   70  61  73 SW14      29.80R
6HR MIN TEMP:  69; 6HR MAX TEMP:  76; 6HR PCP:  0.06;

LANSING*       MOSUNNY   72  58  61 SW21G30   29.82R
JOLIET*        PTSUNNY   74  62  65 SW13G25   29.82R
WAUKEGAN       PTSUNNY   69  62  78 SW15      29.75R
6HR MIN TEMP:  61; 6HR MAX TEMP:  76; 6HR PCP:  0.31;

DUPAGE AIRPORT CLOUDY    71  62  73 SW14      29.78R
6HR MIN TEMP:  68; 6HR MAX TEMP:  75; 6HR PCP:  0.07;

KANKAKEE*      MOSUNNY   72  64  74 SW16G22   29.86R
WHEELING       PTSUNNY   72  61  68 SW14G23   29.78R
6HR MIN TEMP:  69; 6HR MAX TEMP:  75; 6HR PCP:  0.31;

MORRIS*        MOSUNNY   73  60  64 W14G23    29.80R
ROMEOVILLE*    PTSUNNY   71  60  67 SW17G26   29.81R
NORTHERLY ISL    N/A     73  59  61 SW10        N/A
$$

LMZ740>746-270100-
SOUTHERN LAKE MICHIGAN

STATION/POSITION SKY/WX   TEMP    WIND        PRES    VSBY  WAVE
                          AIR SEA DIR/SP/G                  HT/PER
                          (F)     (DEG/KT/KT) (MB)    (MI)  (FT/S)
SOUTHERN BUOY              50 38  190/ 14/ 16 1008.1R         2/ 4
HARRISON CRIB              71     210/ 24/ 31   N/A
BURNHAM HARBOR             73     200/ 11/ 22   N/A
CALUMET HARBOR             74     220/ 14/ 23   N/A
BURNS HARBOR               73     220/ 20     1009.5S
MICHIGAN CITY              73     180/ 18/ 28   N/A
MICHIGAN CITY 6N           66 52  220/ 14/ 19   N/A           2/ 3
ST. JOSEPH                 63 55  240/ 10/ 12   N/A           2/ 3
$$

ILZ025>027-034>036-040-047-049-050-058-095>099-270100-
WEST-CENTRAL ILLINOIS

CITY           SKY/WX    TMP DP  RH WIND       PRES   REMARKS
QUINCY         MOSUNNY   75  60  59 SW16      29.83S
GALESBURG*     PTSUNNY   72  60  66 SW12G20   29.81S
MACOMB*        PTSUNNY   73  62  66 SW12      29.84S
JACKSONVILLE*  SUNNY     78  62  58 SW14      29.87R
PITTSFIELD*    MOSUNNY   76  60  58 SW13      29.87R
$$

ILZ028>032-037-038-041>044-048-051>054-059>061-270100-
CENTRAL ILLINOIS

CITY           SKY/WX    TMP DP  RH WIND       PRES   REMARKS
PONTIAC        MOSUNNY   75  63  67 SW13G18   29.85R
BLOOMINGTON    MOSUNNY   75  62  64 SW14      29.88R
DECATUR        SUNNY     75  61  61 SW12      29.90R
PEORIA         MOSUNNY   77  60  55 SW14G22   29.83S
6HR MIN TEMP:  69; 6HR MAX TEMP:  79; 6HR PCP:  0.08;

LACON*         PTSUNNY   74  60  61 SW7       29.82R
LINCOLN*       PTSUNNY   76  62  62 SW5       29.85R
SPRINGFIELD    MOSUNNY   76  61  59 SW10      29.88R
6HR MIN TEMP:  67; 6HR MAX TEMP:  79; 6HR PCP:  0.02;

TAYLORVILLE    MOSUNNY   73  63  68 S13       29.91R
$$

ILZ033-039-045-046-055>057-062-063-270100-
EAST-CENTRAL ILLINOIS

CITY           SKY/WX    TMP DP  RH WIND       PRES   REMARKS
CHAMPAIGN      MOSUNNY   73  61  65 SW18      29.91R
DANVILLE*      LGT RAIN  69  62  79 SW12      29.88S
RANTOUL*       SUNNY     74  63  68 SW15G21   29.90R
MATTOON        MOSUNNY   74  59  59 SW10G18   29.92R
PARIS*         CLOUDY    77  59  53 SW17      29.92S
$$

ILZ079-100>102-270100-
SOUTHWEST ILLINOIS

CITY           SKY/WX    TMP DP  RH WIND       PRES   REMARKS
ALTON          MOSUNNY   77  64  65 SW10      29.91R
BELLEVILLE     SUNNY     77  63  61 S14       29.92R
CAHOKIA*       MOSUNNY   78  59  51 S8        29.91R
SPARTA*        SUNNY     75  60  60 SW10      29.96R
$$

ILZ064>066-069>071-074>076-080>082-084>086-088>090-092>094-270100-
SOUTH-CENTRAL ILLINOIS

CITY           SKY/WX    TMP DP  RH WIND       PRES   REMARKS
CARBONDALE     MOSUNNY   75  63  66 S13       29.97R
6HR MIN TEMP:  75; 6HR MAX TEMP:  77;

CAIRO*         MOSUNNY   74  64  71 SW9       30.01R
EFFINGHAM*     MOSUNNY   76  56  49 S12       29.95R
MARION         MOSUNNY   75  64  69 SW10      29.99R
MT. VERNON     MOSUNNY   75  61  60 SW13      29.96R
CENTRALIA*     SUNNY     78  57  48 SW10      29.95R
SALEM*         SUNNY     78  57  47 SW16G22   29.95R
METROPOLIS*    MOSUNNY   74  64  68 SW10G17   30.00S
$$

ILZ067-068-072-073-078-083-087-091-270100-
SOUTHEAST ILLINOIS

CITY           SKY/WX    TMP DP  RH WIND       PRES   REMARKS
LAWRENCEVILLE  PTSUNNY   77  59  53 SW16      29.95S
FLORA*         PTSUNNY   75  61  61 S12       29.95R
FAIRFIELD*     PTSUNNY   76  62  61 SW10      29.95R
HARRISBURG*    MOSUNNY   75  61  61 SW16      29.99R
ROBINSON*      PTSUNNY   76  59  54 SW17      29.95R
CARMI*         PTSUNNY   75  55  50 SW12      29.97R
$$

ABBREVIATIONS USED IN REMARKS
   TC - TEMPERATURE IN CELSIUS
  WCI - WIND CHILL INDEX
   HX - HEAT INDEX
  VSB - VISIBILITY
$$



USA.gov is the U.S. government's official web portal to all federal, state and local government web resources and services.